W5CGC Weather Reports


Display with metric or nautical units.
time (UTC)temp
F
wind
direction
speed
MPH
gust
MPH
rain 1hr
in
rain 24hr
in
rain mn
in
humidity
%
barometer
mb
20180226024851 57 159 0.0 2.0 0.00 0.00 0.00 75 1017.2
20180226023349 57 154 0.0 3.0 0.00 0.00 0.00 74 1016.8
20180226021849 57 148 0.0 0.0 0.00 0.00 0.00 75 1016.7
20180226020349 57 148 0.0 0.0 0.00 0.00 0.00 73 1016.7
20180226014847 59 148 0.0 1.0 0.00 0.00 0.00 70 1016.6
20180226013347 59 167 0.0 1.0 0.00 0.00 0.00 69 1016.4
20180226011847 60 219 0.0 2.0 0.00 0.00 0.00 68 1016.3
20180226010346 60 101 0.0 1.0 0.00 0.00 0.00 67 1016.1
20180226004846 60 197 0.0 0.0 0.00 0.00 0.00 66 1015.9
20180226003346 61 197 0.0 0.0 0.00 0.00 0.00 64 1015.8
20180226001845 63 198 0.0 0.0 0.00 0.00 0.00 59 1015.5
20180226000343 64 142 0.0 2.0 0.00 0.00 0.00 55 1015.3
20180225234842 65 203 0.0 3.0 0.00 0.00 0.00 50 1015.1
20180225233341 65 166 0.0 6.0 0.00 0.00 0.00 49 1015.1
20180225231842 66 190 2.0 9.0 0.00 0.00 0.00 43 1015.0
20180225230340 66 141 2.0 6.0 0.00 0.00 0.00 44 1015.1
20180225224837 67 125 2.0 6.0 0.00 0.00 0.00 48 1015.1
20180225223337 68 218 1.0 6.0 0.00 0.00 0.00 49 1015.1
20180225221836 68 176 3.0 8.0 0.00 0.00 0.00 45 1014.9
20180225220335 67 191 0.0 4.0 0.00 0.00 0.00 48 1014.7
20180225214832 67 97 1.0 3.0 0.00 0.00 0.00 47 1014.6
20180225213331 67 81 4.0 6.0 0.00 0.00 0.00 49 1014.6
20180225211828 69 224 3.0 8.0 0.00 0.00 0.00 46 1014.9
20180225210327 69 174 1.0 5.0 0.00 0.00 0.00 44 1015.1
20180225204821 68 145 1.0 6.0 0.00 0.00 0.00 42 1015.5
20180225203317 67 146 1.0 8.0 0.00 0.00 0.00 46 1015.7
20180225201914 67 210 2.0 10.0 0.00 0.00 0.00 46 1015.8
20180225200311 67 167 4.0 8.0 0.00 0.00 0.00 49 1016.2
20180225194808 66 145 2.0 8.0 0.00 0.00 0.00 52 1016.5
20180225193306 66 108 3.0 5.0 0.00 0.00 0.00 54 1016.7
20180225191804 65 176 2.0 7.0 0.00 0.00 0.00 54 1017.1
20180225190301 65 172 5.0 11.0 0.00 0.00 0.00 53 1017.5
20180225184802 65 212 1.0 6.0 0.00 0.00 0.00 54 1017.7
20180225183258 64 153 2.0 7.0 0.00 0.00 0.00 55 1017.9
20180225181755 64 151 2.0 10.0 0.00 0.00 0.00 54 1017.9
20180225180254 63 170 3.0 10.0 0.00 0.00 0.00 54 1018.2
20180225174754 62 156 3.0 7.0 0.00 0.00 0.00 54 1018.4
20180225173249 62 137 3.0 7.0 0.00 0.00 0.00 55 1018.8
20180225171744 60 73 1.0 4.0 0.00 0.00 0.00 59 1019.1
20180225170242 59 179 3.0 8.0 0.00 0.00 0.00 66 1019.1
20180225164739 58 159 2.0 8.0 0.00 0.24 0.00 71 1019.8
20180225163234 56 204 3.0 7.0 0.00 0.24 0.00 77 1019.5
20180225161729 54 164 0.0 2.0 0.00 0.24 0.00 83 1019.2
20180225160225 53 82 0.0 4.0 0.00 0.24 0.00 89 1019.3
20180225154721 51 65 0.0 1.0 0.00 0.24 0.00 93 1019.0
20180225153218 49 152 0.0 1.0 0.00 0.24 0.00 94 1019.2
20180225151715 48 173 0.0 0.0 0.00 0.24 0.00 94 1019.4
20180225150212 47 114 0.0 0.0 0.00 0.24 0.00 94 1019.4
20180225144709 46 114 0.0 0.0 0.00 0.24 0.00 94 1019.7
20180225143206 45 24 0.0 0.0 0.00 0.24 0.00 94 1019.6
20180225141701 43 25 0.0 0.0 0.00 0.24 0.00 94 1019.1
20180225140201 41 24 0.0 0.0 0.00 0.24 0.00 94 1018.9
20180225134701 39 24 0.0 0.0 0.00 0.26 0.00 94 1018.9
20180225133200 38 24 0.0 0.0 0.00 0.26 0.00 94 1019.1
20180225131658 38 24 0.0 0.0 0.00 0.26 0.00 94 1019.4
20180225130157 38 25 0.0 0.0 0.00 0.26 0.00 94 1019.7
20180225124653 37 24 0.0 0.0 0.00 0.35 0.00 93 1019.1
20180225123151 37 24 0.0 0.0 0.00 0.35 0.00 93 1019.0
20180225121647 36 24 0.0 0.0 0.00 0.35 0.00 93 1018.4
20180225120146 36 25 0.0 0.0 0.00 0.35 0.00 93 1017.9
20180225114642 37 24 0.0 0.0 0.00 0.51 0.00 93 1018.0
20180225113140 37 24 0.0 0.0 0.00 0.51 0.00 93 1017.7
20180225111639 37 24 0.0 0.0 0.00 0.51 0.00 93 1017.7
20180225110138 37 24 0.0 0.0 0.00 0.51 0.00 93 1017.6
20180225104636 38 25 0.0 0.0 0.00 0.51 0.00 93 1017.7
20180225103133 38 25 0.0 0.0 0.00 0.51 0.00 93 1017.7
20180225101631 38 25 0.0 0.0 0.00 0.51 0.00 93 1017.5
20180225100130 39 24 0.0 0.0 0.00 0.51 0.00 93 1017.3
20180225094628 39 24 0.0 0.0 0.00 0.51 0.00 93 1017.2
20180225093126 39 24 0.0 0.0 0.00 0.51 0.00 93 1017.0
20180225091624 40 24 0.0 0.0 0.00 0.51 0.00 92 1017.2
20180225090122 40 25 0.0 0.0 0.00 0.51 0.00 92 1017.3
20180225084621 40 24 0.0 0.0 0.00 0.51 0.00 92 1017.3
20180225083120 41 25 0.0 0.0 0.00 0.51 0.00 92 1017.4
20180225081619 41 25 0.0 0.0 0.00 0.51 0.00 92 1017.5
20180225080117 41 24 0.0 0.0 0.00 0.51 0.00 92 1017.5
20180225074615 41 24 0.0 0.0 0.00 0.51 0.00 92 1017.5
20180225073112 41 25 0.0 0.0 0.00 0.51 0.00 92 1017.4
20180225071613 41 24 0.0 0.0 0.00 0.51 0.00 92 1017.7
20180225070110 41 24 0.0 0.0 0.00 0.51 0.00 92 1017.6
20180225064609 42 24 0.0 0.0 0.00 0.51 0.00 91 1017.7
20180225063104 42 25 0.0 0.0 0.00 0.51 0.00 91 1017.7
20180225061604 43 25 0.0 0.0 0.00 0.51 0.00 91 1017.4
20180225060102 43 25 0.0 0.0 0.00 0.51 0.00 91 1017.4
20180225054557 44 24 0.0 0.0 0.00 0.51 0.51 91 1017.2
20180225053055 45 25 0.0 0.0 0.00 0.51 0.51 91 1017.0
20180225051555 45 24 0.0 0.0 0.00 0.51 0.51 91 1017.1
20180225050055 45 24 0.0 0.0 0.00 0.51 0.51 91 1016.9
20180225044556 44 276 0.0 0.0 0.00 0.51 0.51 91 1016.5
20180225043054 45 276 0.0 0.0 0.00 0.51 0.51 91 1016.2
20180225041555 45 276 0.0 0.0 0.00 0.51 0.51 91 1016.0
20180225040052 46 276 0.0 0.0 0.00 0.51 0.51 90 1015.9
20180225034551 46 276 0.0 0.0 0.00 0.51 0.51 90 1015.8
20180225033052 47 276 0.0 0.0 0.00 0.51 0.51 90 1015.5
20180225031551 47 275 0.0 0.0 0.00 0.51 0.51 90 1015.2
20180225030051 48 276 0.0 0.0 0.00 0.51 0.51 90 1015.1